Time,TemperatureF,DewpointF,PressureIn,WindDirection,WindDirectionDegrees,WindSpeedMPH,WindSpeedGustMPH,Humidity,HourlyPrecipIn,Conditions,Clouds,dailyrainin,SoftwareType,DateUTC
2013-01-10 00:05:00,36.6,28.0,30.37,WNW,297,13.0,17.0,71,0.00,,,0.00,weatherlink.com 1.10,2013-01-10 05:05:00,
2013-01-10 00:20:00,36.5,29.0,30.37,NNW,340,9.0,19.0,73,0.00,,,0.00,weatherlink.com 1.10,2013-01-10 05:20:00,
2013-01-10 00:51:00,36.3,28.0,30.36,NNW,346,14.0,21.0,73,0.00,,,0.00,weatherlink.com 1.10,2013-01-10 05:51:00,
2013-01-10 01:06:00,36.1,28.0,30.37,NNW,331,12.0,19.0,72,0.00,,,0.00,weatherlink.com 1.10,2013-01-10 06:06:00,
2013-01-10 01:21:00,36.0,27.0,30.36,NNW,348,12.0,20.0,70,0.00,,,0.00,weatherlink.com 1.10,2013-01-10 06:21:00,
2013-01-10 01:36:00,35.7,27.0,30.37,North,351,13.0,23.0,70,0.00,,,0.00,weatherlink.com 1.10,2013-01-10 06:36:00,
2013-01-10 01:51:00,35.2,27.0,30.38,NNW,333,10.0,18.0,72,0.00,,,0.00,weatherlink.com 1.10,2013-01-10 06:51:00,
2013-01-10 02:06:00,34.8,26.0,30.36,North,5,10.0,18.0,71,0.00,,,0.00,weatherlink.com 1.10,2013-01-10 07:06:00,
2013-01-10 02:21:00,34.4,26.0,30.37,North,355,13.0,17.0,72,0.00,,,0.00,weatherlink.com 1.10,2013-01-10 07:21:00,
2013-01-10 02:36:00,34.1,26.0,30.38,North,10,11.0,13.0,73,0.00,,,0.00,weatherlink.com 1.10,2013-01-10 07:36:00,
2013-01-10 02:51:00,34.0,27.0,30.37,NE,37,7.0,13.0,74,0.00,,,0.00,weatherlink.com 1.10,2013-01-10 07:51:00,
2013-01-10 03:06:00,33.8,27.0,30.39,NNE,32,7.0,10.0,75,0.00,,,0.00,weatherlink.com 1.10,2013-01-10 08:06:00,
2013-01-10 03:21:00,33.8,27.0,30.38,NNE,23,7.0,9.0,76,0.00,,,0.00,weatherlink.com 1.10,2013-01-10 08:21:00,
2013-01-10 03:36:00,33.7,27.0,30.39,NE,39,2.0,6.0,77,0.00,,,0.00,weatherlink.com 1.10,2013-01-10 08:36:00,
2013-01-10 03:51:00,32.1,26.0,30.39,NE,39,2.0,2.0,79,0.00,,,0.00,weatherlink.com 1.10,2013-01-10 08:51:00,
2013-01-10 04:06:00,32.8,27.0,30.40,NE,39,1.0,3.0,78,0.00,,,0.00,weatherlink.com 1.10,2013-01-10 09:06:00,
2013-01-10 04:22:00,29.9,25.0,30.41,South,184,3.0,4.0,82,0.00,,,0.00,weatherlink.com 1.10,2013-01-10 09:22:00,
2013-01-10 04:37:00,29.8,25.0,30.43,SW,218,7.0,7.0,83,0.00,,,0.00,weatherlink.com 1.10,2013-01-10 09:37:00,
2013-01-10 04:52:00,30.0,25.0,30.45,SSW,212,7.0,10.0,82,0.00,,,0.00,weatherlink.com 1.10,2013-01-10 09:52:00,
2013-01-10 05:07:00,30.1,26.0,30.45,SW,220,5.0,7.0,83,0.00,,,0.00,weatherlink.com 1.10,2013-01-10 10:07:00,
2013-01-10 05:22:00,30.2,25.0,30.46,SSW,211,5.0,7.0,82,0.00,,,0.00,weatherlink.com 1.10,2013-01-10 10:22:00,
2013-01-10 05:37:00,30.4,26.0,30.46,SW,217,6.0,9.0,82,0.00,,,0.00,weatherlink.com 1.10,2013-01-10 10:37:00,
2013-01-10 05:52:00,30.7,26.0,30.45,SSW,211,4.0,7.0,81,0.00,,,0.00,weatherlink.com 1.10,2013-01-10 10:52:00,
2013-01-10 06:07:00,31.0,26.0,30.45,SSW,205,5.0,8.0,80,0.00,,,0.00,weatherlink.com 1.10,2013-01-10 11:07:00,
2013-01-10 06:22:00,32.0,26.0,30.45,SSW,202,6.0,10.0,77,0.00,,,0.00,weatherlink.com 1.10,2013-01-10 11:22:00,
2013-01-10 06:37:00,32.9,26.0,30.44,South,172,6.0,9.0,75,0.00,,,0.00,weatherlink.com 1.10,2013-01-10 11:37:00,
2013-01-10 06:52:00,32.6,26.0,30.46,South,178,4.0,7.0,75,0.00,,,0.00,weatherlink.com 1.10,2013-01-10 11:52:00,
2013-01-10 07:07:00,30.9,25.0,30.48,South,186,3.0,6.0,78,0.00,,,0.00,weatherlink.com 1.10,2013-01-10 12:07:00,
2013-01-10 07:22:00,30.6,25.0,30.48,SSW,204,3.0,5.0,81,0.00,,,0.00,weatherlink.com 1.10,2013-01-10 12:22:00,
2013-01-10 07:37:00,31.0,26.0,30.48,SSW,203,3.0,5.0,82,0.00,,,0.00,weatherlink.com 1.10,2013-01-10 12:37:00,
2013-01-10 07:52:00,31.0,26.0,30.48,SSW,204,5.0,5.0,82,0.00,,,0.00,weatherlink.com 1.10,2013-01-10 12:52:00,
2013-01-10 08:07:00,30.8,26.0,30.48,SSW,202,4.0,6.0,83,0.00,,,0.00,weatherlink.com 1.10,2013-01-10 13:07:00,
2013-01-10 08:22:00,31.2,27.0,30.48,SSW,198,5.0,7.0,83,0.00,,,0.00,weatherlink.com 1.10,2013-01-10 13:22:00,
2013-01-10 08:37:00,30.7,26.0,30.48,SSW,198,6.0,7.0,84,0.00,,,0.00,weatherlink.com 1.10,2013-01-10 13:37:00,
2013-01-10 08:52:00,30.8,27.0,30.48,SSW,199,5.0,8.0,84,0.00,,,0.00,weatherlink.com 1.10,2013-01-10 13:52:00,
2013-01-10 09:07:00,31.6,27.0,30.47,SSW,194,6.0,8.0,84,0.00,,,0.00,weatherlink.com 1.10,2013-01-10 14:07:00,
2013-01-10 09:22:00,31.3,27.0,30.47,South,171,2.0,8.0,83,0.00,,,0.00,weatherlink.com 1.10,2013-01-10 14:22:00,
2013-01-10 09:37:00,31.7,27.0,30.46,South,173,4.0,6.0,83,0.00,,,0.00,weatherlink.com 1.10,2013-01-10 14:37:00,
2013-01-10 09:52:00,32.1,28.0,30.45,South,183,5.0,7.0,84,0.00,,,0.00,weatherlink.com 1.10,2013-01-10 14:52:00,
2013-01-10 10:07:00,33.7,29.0,30.46,SW,217,6.0,7.0,83,0.00,,,0.00,weatherlink.com 1.10,2013-01-10 15:07:00,
2013-01-10 10:22:00,33.9,29.0,30.46,SSW,207,10.0,11.0,82,0.00,,,0.00,weatherlink.com 1.10,2013-01-10 15:22:00,
2013-01-10 10:37:00,34.8,29.0,30.45,SSW,202,6.0,7.0,80,0.00,,,0.00,weatherlink.com 1.10,2013-01-10 15:37:00,
2013-01-10 10:52:00,35.5,29.0,30.45,SSW,194,7.0,7.0,78,0.00,,,0.00,weatherlink.com 1.10,2013-01-10 15:52:00,
2013-01-10 11:07:00,36.1,29.0,30.45,SSW,198,7.0,9.0,75,0.00,,,0.00,weatherlink.com 1.10,2013-01-10 16:07:00,
2013-01-10 11:22:00,36.6,29.0,30.45,SW,232,10.0,12.0,75,0.00,,,0.00,weatherlink.com 1.10,2013-01-10 16:22:00,
2013-01-10 11:37:00,37.1,30.0,30.44,SSW,211,7.0,12.0,74,0.00,,,0.00,weatherlink.com 1.10,2013-01-10 16:37:00,
2013-01-10 11:52:00,36.7,29.0,30.43,SW,220,8.0,14.0,73,0.00,,,0.00,weatherlink.com 1.10,2013-01-10 16:52:00,
2013-01-10 12:07:00,37.3,29.0,30.42,SW,217,9.0,12.0,73,0.00,,,0.00,weatherlink.com 1.10,2013-01-10 17:07:00,
2013-01-10 12:37:00,37.4,29.0,30.42,South,190,10.0,12.0,71,0.00,,,0.00,weatherlink.com 1.10,2013-01-10 17:37:00,
2013-01-10 12:52:00,38.2,29.0,30.41,South,185,9.0,12.0,70,0.00,,,0.00,weatherlink.com 1.10,2013-01-10 17:52:00,
2013-01-10 13:07:00,39.0,29.0,30.40,SW,225,8.0,9.0,67,0.00,,,0.00,weatherlink.com 1.10,2013-01-10 18:07:00,
2013-01-10 13:22:00,39.4,28.0,30.39,South,191,4.0,11.0,64,0.00,,,0.00,weatherlink.com 1.10,2013-01-10 18:22:00,
2013-01-10 13:37:00,39.8,27.0,30.38,SW,214,9.0,10.0,61,0.00,,,0.00,weatherlink.com 1.10,2013-01-10 18:37:00,
2013-01-10 13:52:00,40.3,27.0,30.37,SSW,192,11.0,12.0,59,0.00,,,0.00,weatherlink.com 1.10,2013-01-10 18:52:00,
2013-01-10 14:07:00,40.9,27.0,30.36,South,180,6.0,11.0,57,0.00,,,0.00,weatherlink.com 1.10,2013-01-10 19:07:00,
2013-01-10 14:22:00,40.9,27.0,30.36,SE,136,5.0,8.0,58,0.00,,,0.00,weatherlink.com 1.10,2013-01-10 19:22:00,
2013-01-10 14:37:00,41.4,27.0,30.35,South,169,4.0,9.0,56,0.00,,,0.00,weatherlink.com 1.10,2013-01-10 19:37:00,
2013-01-10 14:52:00,42.3,27.0,30.34,South,184,6.0,8.0,54,0.00,,,0.00,weatherlink.com 1.10,2013-01-10 19:52:00,
2013-01-10 15:08:00,41.7,26.0,30.34,SE,142,6.0,8.0,55,0.00,,,0.00,weatherlink.com 1.10,2013-01-10 20:08:00,
2013-01-10 15:23:00,41.8,26.0,30.33,SE,143,5.0,5.0,53,0.00,,,0.00,weatherlink.com 1.10,2013-01-10 20:23:00,
2013-01-10 15:53:00,41.8,26.0,30.32,SE,142,6.0,8.0,54,0.00,,,0.00,weatherlink.com 1.10,2013-01-10 20:53:00,
2013-01-10 16:23:00,41.7,26.0,30.31,SE,135,3.0,10.0,53,0.00,,,0.00,weatherlink.com 1.10,2013-01-10 21:23:00,
2013-01-10 16:38:00,41.4,26.0,30.30,SSE,147,7.0,8.0,54,0.00,,,0.00,weatherlink.com 1.10,2013-01-10 21:38:00,
2013-01-10 16:53:00,40.8,26.0,30.30,SE,146,3.0,6.0,55,0.00,,,0.00,weatherlink.com 1.10,2013-01-10 21:53:00,
2013-01-10 17:08:00,40.4,26.0,30.30,SE,146,8.0,9.0,56,0.00,,,0.00,weatherlink.com 1.10,2013-01-10 22:08:00,
2013-01-10 17:23:00,40.4,26.0,30.30,SE,143,5.0,9.0,56,0.00,,,0.00,weatherlink.com 1.10,2013-01-10 22:23:00,
2013-01-10 17:38:00,40.1,26.0,30.30,SSE,150,4.0,9.0,57,0.00,,,0.00,weatherlink.com 1.10,2013-01-10 22:38:00,
2013-01-10 17:53:00,39.6,26.0,30.29,SE,143,7.0,9.0,59,0.00,,,0.00,weatherlink.com 1.10,2013-01-10 22:53:00,
2013-01-10 18:08:00,39.4,26.0,30.28,SSE,155,7.0,9.0,60,0.00,,,0.00,weatherlink.com 1.10,2013-01-10 23:08:00,
2013-01-10 18:22:00,39.6,27.0,30.28,South,173,4.0,9.0,60,0.00,,,0.00,weatherlink.com 1.10,2013-01-10 23:22:00,
2013-01-10 18:37:00,39.9,26.0,30.27,South,169,6.0,10.0,59,0.00,,,0.00,weatherlink.com 1.10,2013-01-10 23:37:00,
2013-01-10 19:07:00,39.5,26.0,30.26,SSE,163,3.0,9.0,60,0.00,,,0.00,weatherlink.com 1.10,2013-01-11 00:07:00,
2013-01-10 19:23:00,38.6,27.0,30.25,SE,130,5.0,8.0,63,0.00,,,0.00,weatherlink.com 1.10,2013-01-11 00:23:00,
2013-01-10 19:37:00,38.3,27.0,30.25,SE,132,7.0,8.0,63,0.00,,,0.00,weatherlink.com 1.10,2013-01-11 00:37:00,
2013-01-10 19:52:00,38.4,27.0,30.23,SSE,150,6.0,10.0,64,0.00,,,0.00,weatherlink.com 1.10,2013-01-11 00:52:00,
2013-01-10 20:07:00,38.3,27.0,30.22,SE,134,8.0,13.0,64,0.00,,,0.00,weatherlink.com 1.10,2013-01-11 01:07:00,
2013-01-10 20:23:00,38.3,27.0,30.21,SE,130,7.0,13.0,64,0.00,,,0.00,weatherlink.com 1.10,2013-01-11 01:23:00,
2013-01-10 20:38:00,38.4,27.0,30.20,South,175,5.0,12.0,63,0.00,,,0.00,weatherlink.com 1.10,2013-01-11 01:38:00,
2013-01-10 20:53:00,38.6,27.0,30.19,SSE,149,15.0,16.0,63,0.00,,,0.00,weatherlink.com 1.10,2013-01-11 01:53:00,
2013-01-10 21:08:00,38.4,27.0,30.18,SSE,150,8.0,15.0,63,0.00,,,0.00,weatherlink.com 1.10,2013-01-11 02:08:00,
2013-01-10 21:23:00,38.3,27.0,30.17,SE,142,11.0,14.0,64,0.00,,,0.00,weatherlink.com 1.10,2013-01-11 02:23:00,
2013-01-10 21:38:00,38.1,28.0,30.16,SE,142,13.0,14.0,66,0.00,,,0.00,weatherlink.com 1.10,2013-01-11 02:38:00,
2013-01-10 21:53:00,38.3,28.0,30.15,SE,146,9.0,16.0,66,0.00,,,0.00,weatherlink.com 1.10,2013-01-11 02:53:00,
2013-01-10 22:08:00,38.3,28.0,30.15,ESE,123,9.0,17.0,66,0.00,,,0.00,weatherlink.com 1.10,2013-01-11 03:08:00,
2013-01-10 22:23:00,38.3,28.0,30.14,SE,142,6.0,9.0,66,0.00,,,0.00,weatherlink.com 1.10,2013-01-11 03:23:00,
2013-01-10 22:38:00,38.4,28.0,30.13,SSE,164,7.0,9.0,66,0.00,,,0.00,weatherlink.com 1.10,2013-01-11 03:38:00,
2013-01-10 22:53:00,38.6,28.0,30.11,SSE,157,9.0,15.0,65,0.00,,,0.00,weatherlink.com 1.10,2013-01-11 03:53:00,
2013-01-10 23:08:00,38.9,28.0,30.10,SSE,152,8.0,16.0,64,0.00,,,0.00,weatherlink.com 1.10,2013-01-11 04:08:00,
2013-01-10 23:23:00,38.8,27.0,30.08,SSW,198,7.0,17.0,64,0.00,,,0.00,weatherlink.com 1.10,2013-01-11 04:23:00,
2013-01-10 23:38:00,38.8,27.0,30.07,SE,136,11.0,17.0,64,0.00,,,0.00,weatherlink.com 1.10,2013-01-11 04:38:00,
2013-01-10 23:53:00,39.0,27.0,30.05,SSE,153,11.0,13.0,62,0.00,,,0.00,weatherlink.com 1.10,2013-01-11 04:53:00,